This is the latest recevied weather packets stored in our database for station/object M0TUM-1. If no packets are shown the sender has not sent any weather packets the latest 10 day(s).
| Time | Temp. | Humidity | Pressure | Rain* | Wind** | Luminosity | Snow |
|---|---|---|---|---|---|---|---|
| 1778146694 | 11.67° C | 64% | 1017.1 hPa | 0 mm | - | 209 W/m² | - |
| 1778146393 | 11.67° C | 64% | 1017 hPa | 0 mm | - | 235 W/m² | - |
| 1778146090 | 11.67° C | 64% | 1017.2 hPa | 0 mm | - | 288 W/m² | - |
| 1778145787 | 11.67° C | 63% | 1017.1 hPa | 0 mm | - | 273 W/m² | - |
| 1778145483 | 11.11° C | 64% | 1017.1 hPa | 0 mm | - | 273 W/m² | - |
| 1778145180 | 11.11° C | 64% | 1017.2 hPa | 0 mm | - | 355 W/m² | - |
| 1778144880 | 11.11° C | 64% | 1017.2 hPa | 0 mm | - | 299 W/m² | - |
| 1778144577 | 11.11° C | 64% | 1017 hPa | 0 mm | - | 219 W/m² | - |
| 1778144274 | 11.67° C | 64% | 1017.2 hPa | 0 mm | - | 208 W/m² | - |
| 1778143668 | 11.11° C | 66% | 1017.1 hPa | 0 mm | - | 263 W/m² | - |
| 1778143364 | 11.11° C | 65% | 1017 hPa | 0 mm | - | 217 W/m² | - |
| 1778143062 | 11.11° C | 65% | 1017.1 hPa | 0 mm | - | 207 W/m² | - |
| 1778142758 | 10.56° C | 65% | 1017.1 hPa | 0 mm | - | 265 W/m² | - |
| 1778142454 | 11.11° C | 66% | 1017.1 hPa | 0 mm | - | 294 W/m² | - |
| 1778142150 | 11.11° C | 66% | 1017 hPa | 0 mm | - | 246 W/m² | - |
| 1778141847 | 11.11° C | 67% | 1016.9 hPa | 0 mm | - | 292 W/m² | - |
| 1778141543 | 10.56° C | 68% | 1016.8 hPa | 0 mm | - | 304 W/m² | - |
| 1778141240 | 10.56° C | 70% | 1016.8 hPa | 0 mm | - | 311 W/m² | - |
| 1778140936 | 10.56° C | 69% | 1017 hPa | 0 mm | - | 259 W/m² | - |
| 1778140632 | 10.56° C | 70% | 1016.7 hPa | 0 mm | - | 290 W/m² | - |
| 1778140328 | 10° C | 71% | 1016.8 hPa | 0 mm | - | 229 W/m² | - |
| 1778140024 | 10° C | 73% | 1016.7 hPa | 0 mm | - | 204 W/m² | - |
| 1778139723 | 9.44° C | 74% | 1016.8 hPa | 0 mm | - | 218 W/m² | - |
| 1778139419 | 9.44° C | 74% | 1016.8 hPa | 0 mm | - | 161 W/m² | - |
| 1778139115 | 9.44° C | 75% | 1016.5 hPa | 0 mm | - | 129 W/m² | - |
* Rain latest hour (hover to see other rain measurements)
** Current wind speed in m/s (hover to see current wind gust speed)